Tracking 25650 objects as of 16-May-2022
HD Live streaming from Space Station
objects crossing your sky now

COSMOS 2251 DEB

Track COSMOS 2251 DEB now!
10-day predictions


NORAD ID: 33836
Int'l Code: 1993-036CD
Perigee: 687.4 km
Apogee: 737.5 km
Inclination: 74.0 °
Period: 98.9 minutes
Semi major axis: 7083 km
RCS: 0.034 m2 (small)
Launch date: June 16, 1993
Source: Commonwealth of Independent States (former USSR) (CIS)
Launch site: PLESETSK MISSILE AND SPACE COMPLEX (PKMTR)

Note: This is SATELLITE DEBRIS
aabbcc
Your satellite tracking list
Your tracking list is empty




NASA's NSSDC Master Catalog

Two Line Element Set (TLE):
1 33836U 93036CD  22135.79333128  .00003557  00000-0  80349-3 0  9990
2 33836  74.0061 258.8031 0035378  70.5984  58.2064 14.56249914449477
Source of the keplerian elements: AFSPC